Regional Weather Roundup
Issued by NWS

Home | Current Version | Previous Version | Text Only | Print | Product List | Glossary On
Versions: 1 2 3 4 5 6 7 8 9 10 11 12 13 14 15 16 17 18 19 20 21 22 23 24 25 26 27 28 29 30 31 32 33 34 35 36 37 38 39 40 41 42 43 44 45 46 47 48 49 50
000
ASUS43 KLOT 210010
RWRIL

ILLINOIS REGIONAL WEATHER ROUNDUP
NATIONAL WEATHER SERVICE CHICAGO/ROMEOVILLE IL
700 PM CDT SUN APR 20 2014

NOTE: "FAIR" INDICATES FEW OR NO CLOUDS BELOW 12,000 FEET WITH NO
SIGNIFICANT WEATHER AND/OR OBSTRUCTIONS TO VISIBILITY.

* THESE STATIONS ARE NOT UNDER NWS QUALITY CONTROL. THEY ALSO MAY NOT
  REPORT WEATHER SUCH AS PRECIPITATION OR FOG.

ILZ001-002-007-009-015-016-024-210100-
NORTHWEST ILLINOIS

CITY           SKY/WX    TMP DP  RH WIND       PRES   REMARKS
MOLINE         PTCLDY    77  45  32 SW7       29.99F
6HR MIN TEMP:  77; 6HR MAX TEMP:  82;

STERLING*      MOCLDY    79  43  27 SW3       30.01F
SAVANNA*       MOCLDY    76  41  28 S6        29.99F
$$

ILZ003-004-008-010-011-017-018-210100-
NORTH CENTRAL ILLINOIS

CITY           SKY/WX    TMP DP  RH WIND       PRES   REMARKS
ROCKFORD       CLOUDY    75  41  29 S9        30.03F
6HR MIN TEMP:  75; 6HR MAX TEMP:  80;

FREEPORT*      MOCLDY    74  47  37 S5        30.04S
ROCHELLE*      MOCLDY    76  40  28 S8        30.04S
DE KALB*       PTCLDY    68  42  39 S8        30.05F
PERU*          PTCLDY    77  43  29 CALM      30.03F
$$

ILZ005-006-012>014-019>023-210100-
NORTHEAST ILLINOIS

CITY           SKY/WX    TMP DP  RH WIND       PRES   REMARKS
CHICAGO-OHARE  MOCLDY    75  38  26 S12       30.05S
6HR MIN TEMP:  73; 6HR MAX TEMP:  79;

CHICAGO-MIDWAY MOCLDY    75  39  27 S7        30.06F
6HR MIN TEMP:  73; 6HR MAX TEMP:  78;

AURORA         CLEAR     74  41  30 S5        30.05F
6HR MIN TEMP:  74; 6HR MAX TEMP:  79;

LANSING*       CLEAR     70  39  32 S7        30.07F
JOLIET*        CLEAR     74  37  26 S3        30.06S
WAUKEGAN       PTCLDY    61  37  41 SE12      30.04F
6HR MIN TEMP:  61; 6HR MAX TEMP:  70;

DUPAGE AIRPORT CLEAR     70  43  37 S7        30.05S
6HR MIN TEMP:  70; 6HR MAX TEMP:  80;

KANKAKEE*      CLEAR     73  42  33 S6        30.07F
WHEELING       PTCLDY    74  40  29 S8        30.05F
6HR MIN TEMP:  73; 6HR MAX TEMP:  78;

MORRIS*        CLEAR     76  30  18 S7        30.04F
ROMEOVILLE*    CLEAR     71  40  32 S5        30.05F
NORTHERLY ISL    N/A     56  40  55 CALM        N/A
$$

LMZ740>746-210100-
SOUTHERN LAKE MICHIGAN

STATION/POSITION SKY/WX   TEMP    WIND        PRES    VSBY  WAVE
                          AIR SEA DIR/SP/G                  HT/PER
                          (F)     (DEG/KT/KT) (MB)    (MI)  (FT/S)
WAUKEGAN HARBOR            51     190/  8/ 10 1019.0S
HARRISON CRIB              58     120/ 14/ 18   N/A
BURNHAM HARBOR             56      CALM  /  3   N/A
CALUMET HARBOR             75     170/  7/ 12 1018.6F
MICHIGAN CITY              62      40/  8/  9   N/A
$$

ILZ025>027-034>036-040-047-049-050-058-095>099-210100-
WEST-CENTRAL ILLINOIS

CITY           SKY/WX    TMP DP  RH WIND       PRES   REMARKS
QUINCY         MOCLDY    76  47  35 S7        30.02F
GALESBURG*     PTCLDY    76  49  38 S7        30.01F
MACOMB*        PTCLDY    78  44  30 SW9       30.04S
JACKSONVILLE*  PTCLDY    76  40  27 S9        30.05F
PITTSFIELD*    MOCLDY    79  42  26 S7        30.04F
$$

ILZ028>032-037-038-041>044-048-051>054-059>061-210100-
CENTRAL ILLINOIS

CITY           SKY/WX    TMP DP  RH WIND       PRES   REMARKS
PONTIAC        CLEAR     77  39  25 S10       30.05F
BLOOMINGTON    CLEAR     71  41  33 S12       30.08F
DECATUR        PTCLDY    73  42  32 S9        30.08F
PEORIA         PTCLDY    77  41  27 S12       30.03F
6HR MIN TEMP:  77; 6HR MAX TEMP:  81;

LACON*         PTCLDY    76  44  31 SW5       30.02F
LINCOLN*       CLEAR     76  40  27 S12       30.04F
SPRINGFIELD    PTCLDY    76  41  28 S12       30.06F
6HR MIN TEMP:  76; 6HR MAX TEMP:  82; 6HR PCP: TRACE;

TAYLORVILLE    PTCLDY    72  45  37 S8        30.08S
$$

ILZ033-039-045-046-055>057-062-063-210100-
EAST-CENTRAL ILLINOIS

CITY           SKY/WX    TMP DP  RH WIND       PRES   REMARKS
CHAMPAIGN      PTCLDY    73  40  30 S10       30.09S
RANTOUL*       CLEAR     76  36  23 S7        30.10S
MATTOON        PTCLDY    71  44  37 S7        30.09F
PARIS*         PTCLDY    71  43  36 S5        30.12S
$$

ILZ079-100>102-210100-
SOUTHWEST ILLINOIS

CITY           SKY/WX    TMP DP  RH WIND       PRES   REMARKS
ALTON          PTCLDY    73  39  29 SE12      30.06S
BELLEVILLE     MOCLDY    73  46  37 SE9       30.06S
CAHOKIA*       MOCLDY    76  44  32 SE13      30.05S
SPARTA*        MOCLDY    73  43  33 S8        30.08F
$$

ILZ064>066-069>071-074>076-080>082-084>086-088>090-092>094-210100-
SOUTH-CENTRAL ILLINOIS

CITY           SKY/WX    TMP DP  RH WIND       PRES   REMARKS
CARBONDALE     MOCLDY    71  45  39 S9        30.08F
6HR MIN TEMP:  71; 6HR MAX TEMP:  78;

CAIRO*         CLEAR     77  42  28 CALM      30.10S
MARION         PTCLDY    72  50  46 S8        30.10F
MT. VERNON     PTCLDY   N/A N/A N/A S5        30.10S
CENTRALIA*       N/A     71  44  37 CALM      30.09S
SALEM*         PTCLDY    75  44  33 SE3       30.10S
METROPOLIS*    PTCLDY    74  39  27 S3        30.09F
$$

ILZ067-068-072-073-078-083-087-091-210100-
SOUTHEAST ILLINOIS

CITY           SKY/WX    TMP DP  RH WIND       PRES   REMARKS
FAIRFIELD*     PTCLDY    73  48  40 CALM      30.09F
HARRISBURG*    PTCLDY    74  48  39 E5        30.10S
ROBINSON*      CLEAR     72  47  40 SE3       30.11F
CARMI*         PTCLDY    73  54  52 E6        30.09F
$$

ABBREVIATIONS USED IN REMARKS
   TC - TEMPERATURE IN CELSIUS
  WCI - WIND CHILL INDEX
   HX - HEAT INDEX
  VSB - VISIBILITY
$$




USA.gov is the U.S. government's official web portal to all federal, state and local government web resources and services.